Santa Fe, NM

6:16 AM MST on December 10, 2019 (GMT -0700)
Santa Fe Municipal

Weather History for KSAF - July, 2019

Change the Weather History Date:

Sunday, July 21, 2019

  Actual Average Record
Temperature  
Mean Temperature 81 °F -  
Max Temperature 93 °F 91 °F 98 °F (2018)
Min Temperature 69 °F 58 °F 52 °F (1999)
Cooling Degree Days 16    
Growing Degree Days 31 (Base 50)    
Moisture  
Dew Point 45 °F    
Average Humidity 31    
Maximum Humidity 45    
Minimum Humidity 15    
Precipitation  
Precipitation 0.00 in - - ()
Sea Level Pressure  
Sea Level Pressure 29.89 in    
Wind  
Wind Speed 8 mph (ESE)    
Max Wind Speed 22 mph    
Max Gust Speed 31 mph    
Visibility 10 miles    
Events Rain , Thunderstorm    
Averages and records for this station are not official NWS values.
T = Trace of Precipitation, MM = Missing Value Source: NWS Daily Summary

Daily Weather History Graph

Daily Weather History Graph

Search for Another Location

Airport or City:

Astronomy

Jul. 21, 2019 Rise Set
Actual Time 6:04 AM MDT 8:17 PM MDT
Civil Twilight 5:35 AM MDT 8:45 PM MDT
Nautical Twilight 4:59 AM MDT 9:21 PM MDT
Astronomical Twilight 4:21 AM MDT 9:59 PM MDT
Moon 11:21 PM MDT (7/21) 10:19 AM MDT (7/21)
Length of Visible Light 15h 10m
Length of Day
14h 12m
Waning Gibbous, 80% of the Moon is Illuminated
Jul 21
Waning Gibbous
Jul 24
Last Quarter
Jul 31
New
Aug 7
First Quarter
Aug 15
Full

Hourly Weather History & Observations

Time (MDT) Temp. Dew Point Humidity Pressure Visibility Wind Dir Wind Speed Gust Speed Precip Events Conditions
12:53 AM 73.9 °F 44.1 °F 34% 29.78 in 10.0 mi Calm Calm - N/A   Clear
1:53 AM 69.1 °F 44.1 °F 40% 29.78 in 10.0 mi Calm Calm - N/A   Partly Cloudy
2:53 AM 69.1 °F 45.0 °F 42% 29.80 in 10.0 mi North 6.9 mph - N/A   Partly Cloudy
3:53 AM 70.0 °F 46.0 °F 42% 29.80 in 10.0 mi North 8.1 mph - 0.00 in   Mostly Cloudy
4:53 AM 69.1 °F 46.9 °F 45% 29.82 in 10.0 mi North 9.2 mph - N/A   Partly Cloudy
5:53 AM 69.1 °F 46.0 °F 44% 29.82 in 10.0 mi North 12.7 mph - N/A   Mostly Cloudy
6:53 AM 69.1 °F 46.9 °F 45% 29.83 in 10.0 mi North 9.2 mph - N/A   Mostly Cloudy
7:53 AM 73.0 °F 46.9 °F 39% 29.86 in 10.0 mi SSE 5.8 mph - N/A   Mostly Cloudy
8:53 AM 73.9 °F 48.0 °F 40% 29.89 in 10.0 mi South 8.1 mph - N/A   Clear
9:53 AM 77.0 °F 46.9 °F 34% 29.90 in 10.0 mi ESE 5.8 mph - N/A   Clear
10:53 AM 81.0 °F 46.0 °F 29% 29.90 in 10.0 mi Variable 3.5 mph - N/A   Clear
11:53 AM 87.1 °F 44.1 °F 22% 29.87 in 10.0 mi Calm Calm - N/A   Clear
12:53 PM 91.9 °F 43.0 °F 18% 29.84 in 10.0 mi Variable 6.9 mph 16.1 mph N/A   Clear
1:53 PM 89.1 °F 36.0 °F 15% 29.84 in 10.0 mi NNE 11.5 mph 18.4 mph N/A   Partly Cloudy
2:39 PM 84.0 °F 48.9 °F 29% 30.20 in 10.0 mi West 6.9 mph - 0.00 in Rain , Thunderstorm Light Rain
2:53 PM 86.0 °F 46.9 °F 26% 29.85 in 10.0 mi Variable 5.8 mph - 0.00 in Rain Light Rain
3:53 PM 93.0 °F 37.9 °F 15% 29.82 in 10.0 mi NE 12.7 mph 18.4 mph 0.00 in   Overcast
4:17 PM 87.1 °F 41.0 °F 20% 30.19 in 10.0 mi ESE 16.1 mph 19.6 mph N/A   Partly Cloudy
4:34 PM 87.1 °F 41.0 °F 20% 30.20 in 10.0 mi SE 10.4 mph - N/A   Clear
4:53 PM 88.0 °F 45.0 °F 22% 29.83 in 10.0 mi SSE 21.9 mph 26.5 mph N/A   Clear
5:53 PM 86.0 °F 45.0 °F 24% 29.83 in 10.0 mi SSE 21.9 mph 27.6 mph N/A   Clear
6:53 PM 84.0 °F 44.1 °F 25% 29.83 in 10.0 mi SE 19.6 mph 31.1 mph N/A   Clear
7:53 PM 82.9 °F 44.1 °F 25% 29.85 in 10.0 mi SE 20.7 mph 26.5 mph N/A   Clear
8:53 PM 81.0 °F 45.0 °F 28% 29.87 in 10.0 mi ESE 15.0 mph - N/A   Clear
9:53 PM 75.9 °F 46.9 °F 36% 29.91 in 10.0 mi South 17.3 mph 26.5 mph N/A   Clear
10:53 PM 72.0 °F 46.9 °F 41% 29.94 in 10.0 mi SSE 19.6 mph 28.8 mph N/A   Scattered Clouds
11:53 PM 71.1 °F 46.9 °F 42% 29.95 in 10.0 mi SSE 18.4 mph 25.3 mph N/A   Clear